sat.trackr.live / text

‹ back to catalog

CZ-10B R/B

NORAD 69974 · 2026-158C

ROCKET_BODY UNKNOWN UNKNOWN

§ Identity

Operator
Country
PRC
Launch date
2026-07-10
Launch site
WSC
Launch vehicle
Mass (kg)
RCS (m²)

External: N2YO · Heavens-Above · Gunter

§ Orbital elements

Epoch: 2026-08-08T20:03:44.700192Z

Period
98.34 min
Inclination
49.9628°
Eccentricity
0.0197925
Mean motion
14.64317739 rev/d
Perigee alt
539.6 km
Apogee alt
819.0 km
Semi-major
7,057.4 km
B*
4.0087e-5
RAAN
168.0877°
Arg perigee
293.0748°
Mean anomaly
64.9426°
Rev number
433

§ Raw data

CZ-10B R/B1 69974U 26158C   26220.83593403  .00000038  00000+0  40087-4 0  99972 69974  49.9628 168.0877 0197925 293.0748  64.9426 14.64317739  4334

JSON: /api/v1/satellites/69974 · /tle

For live sub-satellite position, see the globe view (requires WebGL).

§ Visibility from observer

Set your observer location to see the next 7 days of passes ≥ 10°. The values pass through the URL so the page stays shareable.

No JS? Fill the form by hand. The geolocation button needs JavaScript.